This demonstration page uses our WeatherBlox Daily Observations layout. Learn more.

Left ArrowRight Arrow

44.8408, -93.29828

Hourly Observations for November 7, 2016

Temp ( °F °C ) Dew Point ( °F °C ) Humidity (%) Winds ( mph kmh ) Pressure ( in mb ) Visibility ( mi km ) Precip ( " mm )
12:53 am 00:53 Mostly Clear 49 9.4 40 4.4 71 71 SE 9 15 30.15 1021 10 16 0.00 0.00
1:53 am 01:53 Partly Cloudy 48 8.9 39 3.9 71 71 SE 8 13 30.14 1021 10 16 0.00 0.00
2:53 am 02:53 Mostly Cloudy 47 8.3 38 3.3 71 71 SE 8 13 30.16 1021 10 16 0.00 0.00
3:53 am 03:53 Partly Cloudy 47 8.3 38 3.3 71 71 SSE 10 17 30.15 1021 10 16 0.00 0.00
4:53 am 04:53 Partly Cloudy 47 8.3 38 3.3 71 71 SSE 9 15 30.15 1021 10 16 0.00 0.00
5:53 am 05:53 Mostly Cloudy 48 8.9 38 3.3 68 68 SSE 8 13 30.14 1021 10 16 0.00 0.00
6:53 am 06:53 Mostly Cloudy 47 8.3 38 3.3 71 71 SE 10 17 30.14 1021 10 16 0.00 0.00
7:53 am 07:53 Cloudy 49 9.4 39 3.9 69 69 SE 8 13 30.15 1021 10 16 0.00 0.00
8:53 am 08:53 Cloudy 52 11.1 39 3.9 61 61 SSE 6 9 30.16 1021 10 16 0.00 0.00
9:53 am 09:53 Cloudy 57 13.9 40 4.4 53 53 SSW 14 22 30.16 1021 10 16 0.00 0.00
10:53 am 10:53 Cloudy 59 15 41 5 51 51 SSW 13 20 30.16 1021 10 16 0.00 0.00
11:53 am 11:53 Cloudy 61 16.1 42 5.6 50 50 SSW 10 17 30.14 1021 10 16 0.00 0.00
12:53 pm 12:53 Cloudy 63 17.2 43 6.1 48 48 SSW 9 15 30.12 1020 10 16 0.00 0.00
1:53 pm 13:53 Cloudy 64 17.8 45 7.2 50 50 WSW 8 13 30.11 1020 10 16 0.00 0.00
2:53 pm 14:53 Cloudy 64 17.8 46 7.8 52 52 SW 9 15 30.11 1020 10 16 0.00 0.00
3:53 pm 15:53 Cloudy 63 17.2 45 7.2 52 52 SSW 13 20 30.13 1020 10 16 0.00 0.00
4:53 pm 16:53 Cloudy 60 15.6 44 6.7 56 56 SW 12 19 30.14 1021 10 16 0.00 0.00
5:53 pm 17:53 Cloudy 59 15 45 7.2 60 60 SW 9 15 30.14 1021 10 16 0.00 0.00
6:53 pm 18:53 Cloudy 59 15 45 7.2 60 60 WSW 6 9 30.16 1021 10 16 0.00 0.00
7:53 pm 19:53 Mostly Cloudy 58 14.4 46 7.8 65 65 WSW 8 13 30.15 1021 10 16 0.00 0.00
8:53 pm 20:53 Partly Cloudy 57 13.9 46 7.8 67 67 W 7 11 30.15 1021 10 16 0.00 0.00
9:53 pm 21:53 Partly Cloudy 55 12.8 43 6.1 64 64 NW 13 20 30.16 1021 10 16 0.00 0.00
10:53 pm 22:53 Mostly Clear 53 11.7 41 5 64 64 NNW 13 20 30.18 1022 10 16 0.00 0.00
11:53 pm 23:53 Clear 50 10 40 4.4 68 68 NNW 8 13 30.20 1023 10 16 0.00 0.00

Powered by AerisWeather